date:2025-07-06T15:14:26+00:00
validtle:1
satid:64356
launchyear:2025
epoch:25187.16668981
epochday:187
tleage:0
tleclassification:U
active:1
name:STARLINK-34397
meananomly:252.8845
meanmotion:15.5244
rightascension:0.0000
declination:0.0000
semimajoraxis:6787.7325602654
altitudeatperigee:407
altitudeatapogee:412
inclination:69.9997
eccentricity:0.000312
argumentofperigree:260.411
nickname:STARLINK-34397
idesg:25126N  
cosparid:2025-126N
altkm:412.7848112149
velkms:7.6655581018877
velkmh:27596
onumepoch:485
onumnow:7536.62
otype:1
otypedesc:Low Earth Orbit (LEO)
status:1
timestamp:2025-07-06T04:00:02+00:00
nowjuliandate:2460863.1350262
nowepochdate:25187.6350231481
TLE:
STARLINK-34397
1 64356U 25126N   25187.16668981  .00127635  00000+0  20498-2 0  9996
2 64356  69.9997 300.3206 0003120 260.4110 252.8845 15.52443747  4852